Regional Weather Roundup
Issued by NWS

Home | Current Version | Previous Version | Graphics & Text | Print | Product List | Glossary On
Versions: 1 2 3 4 5 6 7 8 9 10 11 12 13 14 15 16 17 18 19 20 21 22 23 24 25 26 27 28 29 30 31 32 33 34 35 36 37 38 39 40 41 42 43 44 45 46 47 48 49 50
000
ASUS43 KLMK 261610
RWRKY
KENTUCKY REGIONAL WEATHER ROUNDUP
NATIONAL WEATHER SERVICE LOUISVILLE KY
1200 PM EDT FRI AUG 26 2016

NOTE "FAIR" INDICATES FEW OR NO CLOUDS BELOW 12,000 FEET
WITH NO SIGNIFICANT WEATHER AND/OR OBSTRUCTIONS TO VISIBILITY.

KYZ001>023-026-027-061>063-070>075-261700-
WESTERN AND SOUTH CENTRAL KENTUCKY

CITY           SKY/WX    TMP DP  RH WIND       PRES   REMARKS
PADUCAH        SUNNY     90  74  59 CALM      30.11F HX  99
HENDERSON      SUNNY     88  73  62 NE3       30.11F HX  96
OWENSBORO      CLOUDY    90  76  63 VRB5      30.13F HX 101
HOPKINSVILLE   MOSUNNY   91  74  57 SW3       30.13F HX 100
BOWLING GREEN  CLOUDY    89  75  63 SE6       30.14F HX  99
GLASGOW        MOSUNNY   88  73  61 NE3       30.15F HX  96
$$

KYZ024-025-028>034-038-045-046-053-261700-
NORTH CENTRAL KENTUCKY

CITY           SKY/WX    TMP DP  RH WIND       PRES   REMARKS
LOUISVILLE/SDF PTSUNNY   89  71  55 CALM      30.14S HX  95
LOUISVILLE/LOU MOSUNNY   87  70  56 E3        30.15S HX  92
FORT KNOX      CLOUDY    86  72  63 N2        30.14F HX  92
$$

KYZ035>037-039>044-047>052-055>060-089>105-261700-
NORTHEAST KENTUCKY

CITY           SKY/WX    TMP DP  RH WIND       PRES   REMARKS
LEXINGTON      MOSUNNY   89  68  49 NE6       30.18S HX  93
COVINGTON      MOSUNNY   87  74  64 CALM      30.16S HX  95
FRANKFORT      CLOUDY    88  69  53 NW3       30.16S HX  92
$$

KYZ054-064>069-076>088-106>120-261700-
SOUTHEAST KENTUCKY

CITY           SKY/WX    TMP DP  RH WIND       PRES   REMARKS
JACKSON        MOSUNNY   86  74  67 CALM      30.20S HX  94
LONDON         SUNNY     85  70  60 CALM      30.19F
SOMERSET       MOSUNNY   86  72  62 E3        30.18F HX  92
MIDDLESBORO    SUNNY     82  74  76 CALM      30.20F
MONTICELLO     PTSUNNY  N/A N/A N/A N12       30.19S
$$





USA.gov is the U.S. government's official web portal to all federal, state and local government web resources and services.